Location: ????????
(56.1167°N, 38.6333°E)
Time: 22:01:20
(UTC+00:00)

Iridium 4 Rocket - Pass Details

Date: 18 November 2025
Orbit: 579 x 887 km, 86.9° (Epoch: 14 December)

Event Time Altitude Azimuth Distance (km) Brightness Sun altitude
Rises 14:34:59 0° 196° (SSW) 3,185 7.2 -11.2°
Reaches altitude 10° 14:37:26 10° 201° (SSW) 2,214 6.5 -11.5°
Maximum altitude 14:42:13 53° 279° (W) 837 4.1 -12.1°
Drops below altitude 10° 14:46:39 10° 357° (N) 2,048 5.6 -12.7°
Sets 14:48:51 0° 2° (N) 2,924 6.3 -13.0°
